[[{"header":{"parameterUnit":"m.s-1","parameterCategory":1,"la1":30.2991,"la2":30.254,"lo1":-89.0895,"lo2":-89.0444,"dy":0.0017,"dx":0.0017,"nx":28,"ny":28,"refTime":"2025-06-02T09:00:00:Z","depth":0,"parameterNumber":2,"parameterNumberName":"U-component_of_WINDS"},"data":[0,0,0,0,0,0,0,0,0,0,0,0,0,0,0,0,0,0,0,0,0,0,0,0,0,0,0,0,0,0,0,0,0,0,0,0,0,0,0,0,0,0,0,0,0,0,0,0,0,0,0,0,0,0,0,0,0,0,1.616,1.616,0,1.6143,1.6142,1.6142,1.6076,1.6075,1.6073,1.6072,1.6053,1.6054,1.6055,0,0,0,0,0,0,0,0,0,0,0,0,0,1.6132,1.6133,1.616,1.616,1.6159,1.6143,1.6142,1.6142,1.6076,1.6075,1.6073,1.6071,1.6053,1.6054,1.6055,0,0,0,0,0,0,0,0,0,0,0,0,0,1.6132,1.6133,1.616,1.6125,1.6121,1.6143,1.6142,1.6142,1.6077,1.6074,1.6072,1.607,1.6052,1.6054,1.6055,1.6109,0,0,1.6059,1.606,0,0,0,0,0,0,0,0,1.6132,1.6133,1.613,1.6127,1.6123,1.6109,1.6126,1.6131,1.6077,1.6094,1.6072,1.6069,1.6073,1.6073,1.6075,1.6108,1.6107,1.6059,1.606,1.6061,1.6061,0,0,0,0,0,0,0,1.6133,1.6134,1.6153,1.613,1.6126,1.6108,1.6106,1.6126,1.6096,1.6092,1.6087,1.6086,1.6071,1.6073,1.6074,1.6107,1.6059,1.606,1.6061,1.6062,1.6178,1.618,0,0,0,0,0,0,1.6138,1.6134,1.6153,1.6152,1.6122,1.6111,1.6108,1.6116,1.6096,1.6091,1.6088,1.6083,1.6072,1.6072,1.6073,1.613,1.6061,1.6062,1.6063,1.6175,1.6178,1.618,0,0,0,0,0,0,1.6137,1.614,1.6154,1.6142,1.6142,1.6114,1.6123,1.6117,1.6119,1.6093,1.6087,1.6096,1.607,1.6071,1.6099,1.6129,1.6063,1.6064,1.6173,1.6176,1.6179,1.6248,0,0,0,0,0,0,1.6137,1.614,1.6162,1.6143,1.6143,1.6182,1.6125,1.6118,1.6122,1.6115,1.6099,1.6094,1.6069,1.6097,1.61,1.6129,1.6065,1.617,1.6174,1.6178,1.6243,1.6253,1.6262,0,0,0,0,0,1.6136,1.6183,1.6163,1.6166,1.6169,1.6184,1.6184,1.6154,1.6125,1.6144,1.6127,1.6095,1.6126,1.6101,1.6104,1.6133,1.6168,1.6173,1.6178,1.6238,1.6251,1.6262,0,0,0,0,0,0,1.6206,1.618,1.6158,1.62,1.6194,1.6173,1.6197,1.6169,1.6172,1.6166,1.6128,1.6125,1.6158,1.6149,1.6122,1.6182,1.6141,1.6147,1.6186,1.6198,1.6207,1.6207,1.6066,0,0,0,0,0,1.6227,1.6241,1.6217,1.6257,1.6255,1.6227,1.6232,1.6209,1.6202,1.62,1.6185,1.6178,1.6186,1.6192,1.6198,1.6242,1.6235,1.6264,1.6273,1.6281,1.6286,1.6303,1.6314,1.6197,1.6197,1.6197,0,0,1.6269,1.6256,1.6268,1.627,1.6263,1.6277,1.6225,1.6244,1.6253,1.6202,1.6226,1.6216,1.6206,1.6241,1.6256,1.6234,1.6317,1.6288,1.6294,1.6294,1.631,1.6321,1.6331,1.6201,1.62,1.6199,0,0,1.6352,1.6346,1.6375,1.6369,1.6359,1.6339,1.6346,1.6328,1.6318,1.6342,1.6303,1.6313,1.6329,1.6322,1.6321,1.6398,1.6366,1.6401,1.645,1.6468,1.6477,1.6485,1.6508,1.6518,1.6406,1.6407,1.6407,0,1.6405,1.6425,1.6394,1.6413,1.6413,1.6368,1.6395,1.6391,1.6384,1.6384,1.6361,1.6376,1.6367,1.6397,1.6416,1.6418,1.6422,1.6401,1.6479,1.6486,1.6493,1.6515,1.6524,1.6411,1.641,1.641,1.6409,0,1.6489,1.6504,1.6529,1.6521,1.6525,1.6549,1.6518,1.6526,1.6502,1.6485,1.6507,1.6494,1.6495,1.6501,1.648,1.6527,1.6514,1.6486,1.6443,1.6509,1.6528,1.6537,1.6416,1.6415,1.6414,1.6413,0,0,1.6615,1.6588,1.6597,1.6591,1.6576,1.6585,1.6606,1.6606,1.6611,1.6608,1.6621,1.6634,1.6606,1.6605,1.6581,1.6598,1.6654,1.6566,1.6565,1.6579,1.6701,1.6719,1.673,1.6634,1.6636,1.6637,1.67,0,1.6691,1.6724,1.6694,1.6732,1.6743,1.6698,1.6716,1.6707,1.6691,1.6696,1.6678,1.6686,1.6651,1.6649,1.6663,1.6644,1.6677,1.664,1.6643,1.6644,1.6644,1.674,1.6761,1.6821,1.6708,1.6709,1.671,0,1.6783,1.6781,1.682,1.6798,1.6801,1.6817,1.6812,1.682,1.6808,1.6794,1.6791,1.6762,1.6778,1.6739,1.6759,1.6734,1.6734,1.6725,1.6726,1.6722,1.6679,1.6736,1.684,1.6848,1.6723,1.6722,1.6721,0,1.6865,1.6873,1.6896,1.6893,1.6869,1.6881,1.6871,1.6857,1.6857,1.6854,1.6853,1.6852,1.685,1.6849,1.6819,1.6794,1.6841,1.68,1.6827,1.6828,1.6837,1.6836,1.6939,1.6843,1.6843,1.6843,1.6843,0,1.695,1.6975,1.6932,1.6946,1.6971,1.6936,1.6961,1.6947,1.6934,1.6943,1.6906,1.6914,1.6877,1.6881,1.6858,1.6875,1.6876,1.6863,1.6856,1.6865,1.6866,1.6862,1.6855,1.6846,1.6845,1.6845,1.6844,0,1.7046,1.7019,1.704,1.7015,1.7009,1.7028,1.7005,1.7016,1.6996,1.7007,1.7008,1.6977,1.698,1.6951,1.6949,1.6933,1.6959,1.6947,1.6963,1.6957,1.6984,1.6981,1.7086,1.7096,1.6998,1.6999,1.7,0,1.71,1.7117,1.7093,1.7095,1.7087,1.7093,1.7093,1.7059,1.706,1.7045,1.7057,1.7056,1.7053,1.7059,1.7036,1.7033,1.7018,1.7054,1.7017,1.7023,1.7013,1.7011,1.701,1.7061,1.7063,1.7064,1.7065,0,1.7197,1.7182,1.7183,1.7178,1.7178,1.7174,1.7166,1.717,1.7133,1.7136,1.7137,1.7135,1.7131,1.7129,1.7121,1.711,1.708,1.7077,1.7082,1.7089,1.7096,1.7088,1.698,1.7074,1.7073,1.7072,1.7072,1.7071,1.727,1.7282,1.7265,1.7266,1.7257,1.725,1.7257,1.7238,1.7238,1.7232,1.7212,1.7216,1.72,1.7186,1.7177,1.7179,1.716,1.717,1.7171,1.7173,1.7176,1.7098,1.7178,1.7178,1.7177,1.7177,1.7177,0,1.7362,1.7348,1.735,1.7339,1.7339,1.7312,1.7301,1.7303,1.7306,1.7295,1.7292,1.7292,1.7289,1.7266,1.726,1.7265,1.7251,1.7265,1.7262,1.7259,1.7195,1.7189,1.7276,1.7276,1.7276,1.7276,1.7276,1.7276,1.7409,1.7425,1.7408,1.7418,1.7404,1.7407,1.7403,1.7395,1.7385,1.7386,1.7384,1.7368,1.735,1.7342,1.7338,1.7331,1.7329,1.7346,1.7334,1.7274,1.7264,1.7255,1.7249,1.7347,1.7347,1.7398,1.7398,1.7399]},{"header":{"parameterUnit":"m.s-1","parameterCategory":1,"la1":30.2991,"la2":30.254,"lo1":-89.0895,"lo2":-89.0444,"dy":0.0017,"dx":0.0017,"nx":28,"ny":28,"refTime":"2025-06-02T09:00:00:Z","depth":0,"parameterNumber":3,"parameterNumberName":"V-component_of_WINDS"},"data":[0,0,0,0,0,0,0,0,0,0,0,0,0,0,0,0,0,0,0,0,0,0,0,0,0,0,0,0,0,0,0,0,0,0,0,0,0,0,0,0,0,0,0,0,0,0,0,0,0,0,0,0,0,0,0,0,0,0,2.0274,2.0275,0,2.0346,2.0347,2.0348,2.031,2.0308,2.0306,2.0304,2.0376,2.038,2.0383,0,0,0,0,0,0,0,0,0,0,0,0,0,2.0098,2.0102,2.0274,2.0275,2.0276,2.0346,2.0347,2.0348,2.031,2.0308,2.0306,2.0304,2.0375,2.0379,2.0384,0,0,0,0,0,0,0,0,0,0,0,0,0,2.0173,2.0103,2.0274,2.0266,2.0266,2.0346,2.0347,2.0348,2.0311,2.0308,2.0305,2.0302,2.0373,2.0379,2.0384,2.0476,0,0,2.0401,2.0404,0,0,0,0,0,0,0,0,2.0169,2.0179,2.0266,2.0266,2.0266,2.0316,2.0311,2.0391,2.0312,2.0294,2.0304,2.0301,2.0358,2.0365,2.0385,2.048,2.0483,2.0402,2.0405,2.0407,2.0409,0,0,0,0,0,0,0,2.0164,2.0176,2.0303,2.0267,2.0267,2.0257,2.0264,2.0326,2.0341,2.0295,2.0292,2.0302,2.0358,2.0379,2.0386,2.0484,2.0401,2.0406,2.041,2.0412,2.0654,2.0657,0,0,0,0,0,0,2.0159,2.0172,2.03,2.0305,2.021,2.0262,2.027,2.0303,2.034,2.0343,2.0304,2.03,2.0371,2.038,2.0388,2.0496,2.0407,2.0413,2.0416,2.0651,2.0654,2.0658,0,0,0,0,0,0,2.0156,2.0171,2.0297,2.0238,2.0253,2.0268,2.0305,2.0306,2.0328,2.0347,2.0349,2.0324,2.0369,2.0381,2.0454,2.0498,2.0415,2.042,2.0647,2.0652,2.0656,2.0714,0,0,0,0,0,0,2.0151,2.017,2.0207,2.0239,2.0256,2.0363,2.0308,2.031,2.0338,2.0333,2.0366,2.0369,2.0368,2.0446,2.046,2.0504,2.0424,2.0643,2.0649,2.0654,2.0708,2.072,2.073,0,0,0,0,0,2.0145,2.0221,2.0209,2.0225,2.0303,2.0366,2.0376,2.0374,2.0342,2.0377,2.0389,2.0368,2.0491,2.0454,2.0469,2.0516,2.064,2.0647,2.0654,2.0703,2.0718,2.073,0,0,0,0,0,0,2.0193,2.0225,2.0212,2.0301,2.0331,2.036,2.0405,2.039,2.0429,2.0423,2.0418,2.0426,2.0501,2.0516,2.0474,2.0605,2.056,2.0571,2.0593,2.0607,2.0618,2.0612,2.0429,0,0,0,0,0,2.0214,2.0265,2.0289,2.0365,2.038,2.039,2.0418,2.0413,2.0444,2.0457,2.0474,2.0504,2.0549,2.0579,2.0622,2.071,2.0715,2.075,2.0761,2.077,2.0778,2.0823,2.0838,2.068,2.068,2.068,0,0,2.0259,2.0282,2.0314,2.0375,2.0398,2.0448,2.0401,2.0457,2.0494,2.0465,2.0535,2.0548,2.0581,2.0661,2.0698,2.0676,2.0823,2.0779,2.0786,2.0789,2.0832,2.0846,2.086,2.0685,2.0684,2.0684,0,0,2.0364,2.0388,2.0452,2.0475,2.051,2.0516,2.0531,2.0562,2.0569,2.064,2.0618,2.066,2.0739,2.0762,2.0784,2.0895,2.0876,2.0909,2.0966,2.101,2.1022,2.1033,2.107,2.1084,2.0918,2.0918,2.0918,0,2.0414,2.049,2.0487,2.0544,2.057,2.0546,2.0609,2.0632,2.0679,2.0697,2.0672,2.0767,2.0788,2.0872,2.0899,2.0918,2.0933,2.0905,2.1021,2.1032,2.1042,2.1077,2.1091,2.0921,2.0921,2.0921,2.092,0,2.0548,2.0601,2.0649,2.0694,2.0726,2.0786,2.0789,2.0821,2.0813,2.0821,2.089,2.0914,2.0959,2.0979,2.0972,2.1061,2.1046,2.1022,2.0976,2.1061,2.1093,2.1107,2.0927,2.0925,2.0924,2.0923,0,0,2.0688,2.0729,2.0746,2.0765,2.0801,2.0841,2.0898,2.0943,2.0969,2.1002,2.1048,2.1113,2.109,2.1114,2.111,2.1148,2.1231,2.1118,2.1118,2.1136,2.1327,2.1345,2.1361,2.1219,2.1221,2.1223,2.1324,0,2.0794,2.0896,2.0893,2.0986,2.1033,2.1009,2.1059,2.1085,2.1092,2.1132,2.114,2.1185,2.1152,2.1166,2.1203,2.1213,2.1269,2.1206,2.1259,2.1261,2.1251,2.1378,2.1398,2.1491,2.1337,2.1339,2.1341,0,2.0932,2.0969,2.1067,2.1092,2.1112,2.1157,2.1195,2.1234,2.1262,2.1264,2.1291,2.1279,2.1335,2.1288,2.1363,2.1321,2.1342,2.135,2.1353,2.1357,2.1305,2.1384,2.1522,2.1535,2.1361,2.136,2.1358,0,2.1021,2.1095,2.1162,2.1179,2.1212,2.1243,2.1257,2.1282,2.1308,2.1342,2.1358,2.1398,2.1419,2.1449,2.1447,2.1414,2.1522,2.1477,2.1524,2.1524,2.1548,2.1546,2.1689,2.1564,2.1564,2.1564,2.1563,0,2.114,2.12,2.1202,2.1244,2.1309,2.1304,2.1369,2.138,2.1402,2.1443,2.1425,2.1464,2.146,2.1499,2.1498,2.1558,2.1569,2.157,2.1569,2.1571,2.1571,2.1585,2.1577,2.1567,2.1567,2.1566,2.1565,0,2.125,2.1255,2.1326,2.135,2.1357,2.1404,2.1423,2.1461,2.1467,2.1519,2.1531,2.1539,2.1583,2.1584,2.1635,2.1634,2.1707,2.17,2.1698,2.1696,2.1743,2.1737,2.1898,2.1918,2.1782,2.1783,2.1784,0,2.1325,2.1371,2.1399,2.1425,2.1441,2.1485,2.1511,2.1506,2.1534,2.1567,2.16,2.1643,2.1676,2.1748,2.1757,2.1795,2.1786,2.184,2.1792,2.1792,2.1785,2.1781,2.1785,2.1849,2.1851,2.1852,2.1853,0,2.1456,2.1455,2.1494,2.1532,2.1563,2.1594,2.1621,2.1644,2.1642,2.1674,2.1718,2.1745,2.1795,2.1837,2.1873,2.1886,2.1869,2.1868,2.1881,2.1883,2.1879,2.1879,2.1722,2.1864,2.1863,2.1862,2.1862,2.1861,2.155,2.1588,2.1613,2.1655,2.1675,2.1701,2.1737,2.1746,2.1783,2.1825,2.1819,2.1869,2.1892,2.1939,2.1954,2.1992,2.1973,2.1992,2.1996,2.2,2.2004,2.1874,2.1998,2.1998,2.1998,2.1997,2.1997,0,2.1678,2.1692,2.1731,2.177,2.1802,2.1784,2.1812,2.1841,2.1884,2.1908,2.1941,2.199,2.203,2.2041,2.2079,2.2106,2.2099,2.2116,2.2113,2.2116,2.202,2.2005,2.2121,2.2121,2.2121,2.2121,2.2121,2.2121,2.1748,2.1811,2.1812,2.1883,2.1897,2.1945,2.1963,2.1985,2.2004,2.206,2.2093,2.21,2.2118,2.2156,2.219,2.2192,2.2206,2.2226,2.2225,2.2135,2.2123,2.2111,2.2096,2.2229,2.223,2.2316,2.2317,2.2318]}]]